TimeCDT,TemperatureF,Dew PointF,Humidity,Sea Level PressureIn,VisibilityMPH,Wind Direction,Wind SpeedMPH,Gust SpeedMPH,PrecipitationIn,Events,Conditions,WindDirDegrees,DateUTC
12:53 AM,12.0,8.1,84,30.40,10.0,East,4.6,-,N/A,,Clear,100,2013-03-26 05:53:00
1:53 AM,12.0,8.1,84,30.40,10.0,SE,3.5,-,N/A,,Clear,140,2013-03-26 06:53:00
2:53 AM,15.1,9.0,77,30.38,10.0,South,4.6,-,N/A,,Clear,180,2013-03-26 07:53:00
3:53 AM,9.0,5.0,84,30.37,10.0,Calm,Calm,-,N/A,,Clear,0,2013-03-26 08:53:00
4:53 AM,9.0,5.0,84,30.35,10.0,ESE,3.5,-,N/A,,Clear,110,2013-03-26 09:53:00
5:53 AM,9.0,5.0,84,30.34,10.0,Calm,Calm,-,N/A,,Clear,0,2013-03-26 10:53:00
6:53 AM,9.0,3.9,80,30.34,10.0,ESE,4.6,-,N/A,,Clear,110,2013-03-26 11:53:00
7:53 AM,9.0,5.0,84,30.35,10.0,East,3.5,-,N/A,,Clear,80,2013-03-26 12:53:00
8:53 AM,16.0,12.0,84,30.33,10.0,ESE,3.5,-,N/A,,Clear,120,2013-03-26 13:53:00
9:53 AM,23.0,15.1,72,30.32,10.0,Calm,Calm,-,N/A,,Clear,0,2013-03-26 14:53:00
10:53 AM,33.8,15.8,48,30.19,10.0,South,15.0,-,N/A,,Clear,170,2013-03-26 15:53:00
11:53 AM,39.9,16.0,38,30.26,10.0,South,15.0,20.7,N/A,,Clear,180,2013-03-26 16:53:00
12:53 PM,42.1,10.0,27,30.22,10.0,South,16.1,24.2,N/A,,Clear,170,2013-03-26 17:53:00
1:53 PM,46.0,9.0,22,30.19,10.0,South,12.7,23.0,N/A,,Clear,190,2013-03-26 18:53:00
2:53 PM,46.9,12.9,25,30.16,10.0,South,16.1,26.5,N/A,,Clear,180,2013-03-26 19:53:00
3:53 PM,48.9,16.0,27,30.15,10.0,South,13.8,-,N/A,,Clear,190,2013-03-26 20:53:00
4:53 PM,46.9,19.0,33,30.13,10.0,SSW,20.7,27.6,N/A,,Clear,200,2013-03-26 21:53:00
5:53 PM,46.0,21.0,37,30.12,10.0,South,16.1,24.2,N/A,,Clear,180,2013-03-26 22:53:00
6:53 PM,46.0,21.0,37,30.12,10.0,South,12.7,-,N/A,,Clear,180,2013-03-26 23:53:00
7:53 PM,41.0,21.0,45,30.14,10.0,SSE,4.6,-,N/A,,Clear,150,2013-03-27 00:53:00
8:53 PM,39.9,21.9,49,30.14,10.0,SE,8.1,-,N/A,,Clear,130,2013-03-27 01:53:00
9:53 PM,39.0,21.9,50,30.14,10.0,SE,8.1,-,N/A,,Clear,140,2013-03-27 02:53:00
10:53 PM,37.0,21.9,54,30.13,10.0,SE,9.2,-,N/A,,Overcast,130,2013-03-27 03:53:00
11:53 PM,35.1,21.9,59,30.12,10.0,ESE,6.9,-,N/A,,Scattered Clouds,120,2013-03-27 04:53:00